Retour au catalogue

ARIANE 44P R/B

ActifHEO
NORAD 25461·ROCKET BODY·🇫🇷 France

Lancé Aug 25, 1998 depuis Guiana Space Centre

Loading…

Prochains Passages (prochaines 24 heures)

TLE

FraisSource: Space-Track

Époque: Sep 14, 2026, 08:31 UTC

1 25461U 98049B   26257.35488339  .00008134  00000-0  13707-2 0  9999
2 25461   4.0543 237.4998 5865612 258.6920  33.5426  4.25101383308318

Suivez ARIANE 44P R/B en temps réel avec AllMySat

Download on the App Store